Weather History for Springfield, VT

Change the Weather History Date:

Thursday, October 4, 2012

  Actual Average Record
Temperature  
Mean Temperature 63 °F 51 °F  
Max Temperature 65 °F 63 °F 80 °F (2007)
Min Temperature 60 °F 39 °F 28 °F (1996)
Degree Days  
Heating Degree Days 2 14  
Month to date heating degree days 22 53  
Since 1 July heating degree days 208 305  
Cooling Degree Days 0 0  
Month to date cooling degree days 0 0  
Year to date cooling degree days 639 344  
Growing Degree Days 12 (Base 50)    
Moisture  
Dew Point 60 °F    
Average Humidity 94    
Maximum Humidity 100    
Minimum Humidity 87    
Precipitation  
Precipitation 0.07 in 0.17 in 0.59 in (1999)
Month to date precipitation 0.25 0.67  
Year to date precipitation 26.24 32.80  
Sea Level Pressure  
Sea Level Pressure 30.12 in    
Wind  
Wind Speed 1 mph (SSE)    
Max Wind Speed 7 mph    
Max Gust Speed 10 mph    
Visibility 6 miles    
Events Fog , Rain    
T = Trace of Precipitation, MM = Missing Value Source: NWS Daily Summary

Daily Weather History Graph

Daily Weather History Graph

Search for Another Location

Airport:

Trip Planner

Search our weather history database for the weather conditions in past years. The results will help you decide how hot, cold, wet, or windy it might be!

Date:

Astronomy

Oct. 04, 2012 Rise Set
Actual Time 6:51 AM EDT 6:25 PM EDT
Civil Twilight 6:23 AM EDT 6:53 PM EDT
Nautical Twilight 5:49 AM EDT 7:26 PM EDT
Astronomical Twilight 5:16 AM EDT 7:59 PM EDT
Moon 8:50 PM EDT (10/4) 11:13 AM EDT (10/4)
Length of Visible Light 12h 30m
Length of Day
11h 33m
Waning Gibbous, 82% of the Moon is Illuminated
Oct 4
Waning Gibbous
Oct 8
Last Quarter
Oct 15
New
Oct 21
First Quarter
Oct 29
Full

Hourly Weather History & Observations

Time (EDT) Temp. Dew Point Humidity Pressure Visibility Wind Dir Wind Speed Gust Speed Precip Events Conditions
12:54 AM 61.0 °F 60.1 °F 97% 30.17 in 10.0 mi Calm Calm - N/A   Overcast
1:16 AM 62.6 °F 60.8 °F 94% 30.16 in 10.0 mi Calm Calm - N/A   Overcast
1:28 AM 62.6 °F 60.8 °F 94% 30.16 in 9.0 mi Calm Calm - N/A   Overcast
1:54 AM 63.0 °F 60.1 °F 90% 30.16 in 5.0 mi Calm Calm - N/A   Overcast
2:54 AM 62.1 °F 61.0 °F 96% 30.15 in 5.0 mi Calm Calm - N/A   Overcast
3:00 AM 62.6 °F 60.8 °F 94% 30.15 in 1.8 mi Calm Calm - N/A   Overcast
3:12 AM 62.6 °F 60.8 °F 94% 30.15 in 3.0 mi Calm Calm - 0.01 in   Overcast
3:23 AM 62.6 °F 60.8 °F 94% 30.15 in 3.0 mi Calm Calm - 0.01 in   Overcast
3:35 AM 62.6 °F 60.8 °F 94% 30.16 in 2.0 mi Calm Calm - 0.01 in   Overcast
3:50 AM 62.6 °F 60.8 °F 94% 30.15 in 3.0 mi Calm Calm - 0.01 in   Overcast
3:54 AM 62.1 °F 60.1 °F 93% 30.15 in 2.5 mi Calm Calm - 0.01 in   Overcast
4:01 AM 62.6 °F 60.8 °F 94% 30.15 in 0.8 mi Calm Calm - N/A   Overcast
4:15 AM 62.6 °F 59.0 °F 88% 30.16 in 1.2 mi Calm Calm - N/A   Overcast
4:27 AM 62.6 °F 60.8 °F 94% 30.15 in 3.0 mi Calm Calm - N/A   Overcast
4:54 AM 62.1 °F 60.1 °F 93% 30.15 in 9.0 mi Calm Calm - N/A   Overcast
5:20 AM 62.6 °F 60.8 °F 94% 30.16 in 8.0 mi Calm Calm - N/A   Overcast
5:42 AM 62.6 °F 60.8 °F 94% 30.16 in 5.0 mi Calm Calm - N/A   Overcast
5:54 AM 62.1 °F 60.1 °F 93% 30.17 in 2.5 mi Calm Calm - N/A   Overcast
6:03 AM 62.6 °F 59.0 °F 88% 30.17 in 5.0 mi Calm Calm - N/A   Overcast
6:37 AM 62.6 °F 59.0 °F 88% 30.15 in 7.0 mi Calm Calm - 0.00 in Rain Light Rain
6:54 AM 62.1 °F 60.1 °F 93% 30.14 in 10.0 mi Calm Calm - 0.00 in   Overcast
7:54 AM 62.1 °F 60.1 °F 93% 30.16 in 5.0 mi Calm Calm - 0.01 in Rain Light Rain
8:54 AM 63.0 °F 60.1 °F 90% 30.17 in 10.0 mi Calm Calm - 0.00 in   Overcast
9:54 AM 63.0 °F 60.1 °F 90% 30.16 in 10.0 mi Calm Calm - N/A   Overcast
10:54 AM 63.0 °F 59.0 °F 87% 30.16 in 8.0 mi Calm Calm - N/A   Overcast
11:54 AM 63.0 °F 59.0 °F 87% 30.16 in 10.0 mi SSE 3.5 mph - N/A   Overcast
12:54 PM 63.0 °F 60.1 °F 90% 30.13 in 10.0 mi Variable 4.6 mph - 0.03 in Rain Light Rain
1:54 PM 64.0 °F 60.1 °F 87% 30.07 in 10.0 mi Variable 5.8 mph - 0.00 in Rain Light Rain
2:54 PM 64.0 °F 60.1 °F 87% 30.09 in 10.0 mi Calm Calm - 0.01 in   Overcast
3:54 PM 64.9 °F 61.0 °F 87% 30.09 in 10.0 mi Calm Calm - 0.00 in Rain Light Rain
4:54 PM 64.9 °F 61.0 °F 87% 30.08 in 10.0 mi Calm Calm - 0.00 in Rain Light Rain
5:54 PM 64.0 °F 62.1 °F 93% 30.06 in 10.0 mi Calm Calm - 0.01 in Rain Light Rain
6:54 PM 63.0 °F 61.0 °F 93% 30.03 in 10.0 mi South 3.5 mph - 0.00 in   Overcast
7:28 PM 62.6 °F 60.8 °F 94% 30.04 in 10.0 mi Calm Calm - N/A   Overcast
7:54 PM 63.0 °F 61.0 °F 93% 30.05 in 10.0 mi Calm Calm - N/A   Overcast
8:54 PM 63.0 °F 60.1 °F 90% 30.05 in 8.0 mi Calm Calm - N/A   Overcast
9:54 PM 63.0 °F 60.1 °F 90% 30.06 in 10.0 mi Calm Calm - N/A   Overcast
10:54 PM 62.1 °F 60.1 °F 93% 30.06 in 1.5 mi Calm Calm - N/A   Overcast
11:06 PM 62.6 °F 60.8 °F 94% 30.06 in 0.5 mi Calm Calm - N/A Fog Fog
11:14 PM 60.8 °F 59.0 °F 94% 30.06 in 0.2 mi Calm Calm - N/A Fog Fog
11:54 PM 60.1 °F 57.9 °F 93% 30.05 in 0.2 mi Calm Calm - N/A Fog Fog